Weather History for KPNM - August, 2013

Change the Weather History Date:

Saturday, August 10, 2013

  Actual Average Record
Temperature  
Mean Temperature 64 °F -  
Max Temperature 75 °F 76 °F 96 °F (2007)
Min Temperature 53 °F 54 °F 44 °F (2001)
Degree Days  
Heating Degree Days 1    
Growing Degree Days 14 (Base 50)    
Moisture  
Dew Point 52 °F    
Average Humidity 68    
Maximum Humidity 94    
Minimum Humidity 36    
Precipitation  
Precipitation 0.00 in - - ()
Sea Level Pressure  
Sea Level Pressure 30.16 in    
Wind  
Wind Speed 2 mph (West)    
Max Wind Speed 7 mph    
Max Gust Speed -    
Visibility 10 miles    
Events      
Averages and records for this station are not official NWS values.
T = Trace of Precipitation, MM = Missing Value Source: NWS Daily Summary

Daily Weather History Graph

Daily Weather History Graph

Search for Another Location

Airport or City:

Trip Planner

Search our weather history database for the weather conditions in past years. The results will help you decide how hot, cold, wet, or windy it might be!

Date:

Astronomy

Aug. 10, 2013 Rise Set
Actual Time 6:09 AM CDT 8:29 PM CDT
Civil Twilight 5:36 AM CDT 9:02 PM CDT
Nautical Twilight 4:55 AM CDT 9:43 PM CDT
Astronomical Twilight 4:08 AM CDT 10:28 PM CDT
Moon 10:11 AM CDT (8/10) 9:55 PM CDT (8/10)
Length of Visible Light 15h 26m
Length of Day
14h 20m
Waxing Crescent, 14% of the Moon is Illuminated
Aug 10
Waxing Crescent
Aug 14
First Quarter
Aug 20
Full
Aug 28
Last Quarter
Sep 5
New

Hourly Weather History & Observations

Time (CDT) Temp. Dew Point Humidity Pressure Visibility Wind Dir Wind Speed Gust Speed Precip Events Conditions
12:01 AM 60.8 °F 51.8 °F 72% 30.14 in 10.0 mi WSW 2.3 mph - N/A   Overcast
12:21 AM 60.8 °F 53.6 °F 77% 30.14 in 10.0 mi Calm Calm - N/A   Overcast
12:41 AM 60.8 °F 53.6 °F 77% 30.14 in 10.0 mi Calm Calm - N/A   Overcast
1:01 AM 60.8 °F 53.6 °F 77% 30.14 in 10.0 mi NW 1.2 mph - N/A   Overcast
1:21 AM 60.8 °F 53.6 °F 77% 30.14 in 10.0 mi WNW 2.3 mph - N/A   Overcast
1:41 AM 60.8 °F 53.6 °F 77% 30.14 in 10.0 mi West 1.2 mph - N/A   Overcast
2:01 AM 60.8 °F 53.6 °F 77% 30.14 in 10.0 mi West 1.2 mph - N/A   Overcast
2:21 AM 59.0 °F 53.6 °F 82% 30.15 in 10.0 mi West 3.5 mph - N/A   Overcast
2:41 AM 59.0 °F 53.6 °F 82% 30.16 in 10.0 mi West 2.3 mph - N/A   Overcast
3:01 AM 59.0 °F 53.6 °F 82% 30.16 in 10.0 mi West 3.5 mph - N/A   Overcast
3:21 AM 59.0 °F 53.6 °F 82% 30.16 in 10.0 mi Calm Calm - N/A   Overcast
3:41 AM 57.2 °F 53.6 °F 88% 30.16 in 10.0 mi Calm Calm - N/A   Overcast
4:01 AM 57.2 °F 53.6 °F 88% 30.17 in 10.0 mi Calm Calm - N/A   Mostly Cloudy
4:21 AM 55.4 °F 51.8 °F 88% 30.18 in 10.0 mi West 2.3 mph - N/A   Overcast
4:41 AM 55.4 °F 51.8 °F 88% 30.18 in 10.0 mi WSW 2.3 mph - N/A   Overcast
5:01 AM 55.4 °F 51.8 °F 88% 30.18 in 10.0 mi WSW 1.2 mph - N/A   Overcast
5:21 AM 55.4 °F 53.6 °F 94% 30.18 in 10.0 mi Calm Calm - N/A   Overcast
5:41 AM 55.4 °F 53.6 °F 94% 30.18 in 10.0 mi Calm Calm - N/A   Overcast
6:01 AM 55.4 °F 53.6 °F 94% 30.18 in 10.0 mi Calm Calm - N/A   Overcast
6:21 AM 55.4 °F 51.8 °F 88% 30.19 in 10.0 mi Calm Calm - N/A   Overcast
6:41 AM 55.4 °F 53.6 °F 94% 30.19 in 10.0 mi Calm Calm - N/A   Overcast
7:01 AM 55.4 °F 53.6 °F 94% 30.19 in 10.0 mi Calm Calm - N/A   Overcast
7:21 AM 57.2 °F 53.6 °F 88% 30.19 in 10.0 mi Calm Calm - N/A   Overcast
7:41 AM 59.0 °F 53.6 °F 82% 30.19 in 10.0 mi WNW 3.5 mph - N/A   Overcast
8:01 AM 60.8 °F 53.6 °F 77% 30.19 in 10.0 mi NW 3.5 mph - N/A   Overcast
8:21 AM 60.8 °F 53.6 °F 77% 30.19 in 10.0 mi NW 4.6 mph - N/A   Overcast
8:41 AM 62.6 °F 53.6 °F 72% 30.19 in 10.0 mi NW 4.6 mph - N/A   Overcast
9:01 AM 62.6 °F 55.4 °F 77% 30.19 in 10.0 mi NNW 4.6 mph - N/A   Overcast
9:21 AM 64.4 °F 55.4 °F 73% 30.19 in 10.0 mi NW 3.5 mph - N/A   Overcast
9:41 AM 64.4 °F 55.4 °F 73% 30.19 in 10.0 mi NW 2.3 mph - N/A   Overcast
10:01 AM 66.2 °F 55.4 °F 68% 30.19 in 10.0 mi North 4.6 mph - N/A   Scattered Clouds
10:32 AM - - N/A% - - North - - N/A   Unknown
10:57 AM - - N/A% 30.19 in - NW 6.9 mph - N/A   Unknown
11:01 AM 71.6 °F 51.8 °F 50% 30.19 in - NW 5.8 mph - N/A   Unknown
11:21 AM 69.8 °F 51.8 °F 53% 30.19 in 10.0 mi North 5.8 mph - N/A   Mostly Cloudy
11:41 AM 69.8 °F 48.2 °F 46% 30.19 in 10.0 mi NNE 3.5 mph - N/A   Mostly Cloudy
12:01 PM 69.8 °F 50.0 °F 49% 30.19 in 10.0 mi West 3.5 mph - N/A   Overcast
12:21 PM 69.8 °F 48.2 °F 46% - 10.0 mi West 3.5 mph - N/A   Overcast
12:41 PM 69.8 °F 48.2 °F 46% 30.19 in 10.0 mi WSW 2.3 mph - N/A   Overcast
1:01 PM 71.6 °F 48.2 °F 43% 30.19 in 10.0 mi SE 1.2 mph - N/A   Overcast
1:21 PM 71.6 °F 46.4 °F 41% 30.19 in 10.0 mi NW 1.2 mph - N/A   Overcast
1:41 PM 71.6 °F 48.2 °F 43% 30.19 in 10.0 mi WSW 2.3 mph - N/A   Overcast
2:01 PM 71.6 °F 48.2 °F 43% 30.18 in 10.0 mi SSE 1.2 mph - N/A   Overcast
2:21 PM 73.4 °F 48.2 °F 41% 30.18 in 10.0 mi South 2.3 mph - N/A   Overcast
2:41 PM 75.2 °F 48.2 °F 38% 30.17 in 10.0 mi WSW 3.5 mph - N/A   Overcast
3:01 PM 71.6 °F 46.4 °F 41% 30.17 in 10.0 mi NW 4.6 mph - N/A   Overcast
3:21 PM 71.6 °F 48.2 °F 43% 30.16 in 10.0 mi NE 2.3 mph - N/A   Overcast
3:41 PM 71.6 °F 48.2 °F 43% 30.16 in 10.0 mi SSW 5.8 mph - N/A   Overcast
4:01 PM 75.2 °F 46.4 °F 36% 30.15 in 10.0 mi SW 3.5 mph - N/A   Overcast
4:21 PM 75.2 °F 48.2 °F 38% 30.15 in 10.0 mi West 6.9 mph - N/A   Overcast
4:41 PM 73.4 °F 48.2 °F 41% 30.15 in 10.0 mi West 4.6 mph - N/A   Mostly Cloudy
5:01 PM 71.6 °F 50.0 °F 46% 30.15 in 10.0 mi West 3.5 mph - N/A   Mostly Cloudy
5:21 PM 71.6 °F 50.0 °F 46% 30.15 in 10.0 mi SW 3.5 mph - N/A   Overcast
5:41 PM 71.6 °F 51.8 °F 50% 30.14 in 10.0 mi SW 4.6 mph - N/A   Overcast
6:01 PM 71.6 °F 50.0 °F 46% 30.14 in 10.0 mi West 1.2 mph - N/A   Overcast
6:21 PM 71.6 °F 50.0 °F 46% 30.14 in 10.0 mi West 2.3 mph - N/A   Overcast
6:41 PM 71.6 °F 50.0 °F 46% 30.13 in 10.0 mi Calm Calm - N/A   Mostly Cloudy
7:01 PM 69.8 °F 51.8 °F 53% 30.12 in 10.0 mi Calm Calm - N/A   Mostly Cloudy
7:21 PM 71.6 °F 51.8 °F 50% 30.11 in 10.0 mi Calm Calm - N/A   Scattered Clouds
7:41 PM 69.8 °F 51.8 °F 53% 30.11 in 10.0 mi Calm Calm - N/A   Clear
8:01 PM 66.2 °F 53.6 °F 64% 30.10 in 10.0 mi Calm Calm - N/A   Clear
8:21 PM 64.4 °F 55.4 °F 73% 30.10 in 10.0 mi Calm Calm - N/A   Clear
8:41 PM 62.6 °F 53.6 °F 72% 30.10 in 10.0 mi SSE 2.3 mph - N/A   Clear
9:01 PM 60.8 °F 53.6 °F 77% 30.11 in 10.0 mi Calm Calm - N/A   Clear
9:21 PM 59.0 °F 53.6 °F 82% 30.11 in 10.0 mi Calm Calm - N/A   Clear
9:41 PM 57.2 °F 53.6 °F 88% 30.11 in 10.0 mi Calm Calm - N/A   Clear
10:01 PM 57.2 °F 53.6 °F 88% 30.11 in 10.0 mi Calm Calm - N/A   Clear
10:21 PM 55.4 °F 53.6 °F 94% 30.11 in 10.0 mi Calm Calm - N/A   Clear
10:41 PM 55.4 °F 53.6 °F 94% 30.11 in 10.0 mi Calm Calm - N/A   Clear
11:01 PM 53.6 °F 51.8 °F 94% 30.11 in 10.0 mi Calm Calm - N/A   Clear
11:21 PM 53.6 °F 51.8 °F 94% 30.11 in 10.0 mi Calm Calm - N/A   Clear
11:41 PM 53.6 °F 51.8 °F 94% 30.10 in 10.0 mi Calm Calm - N/A   Clear